Temp_Advection
nan nan nan nan nan nan nan nan nan nan nan nan nan nan nan nan nan nan nan nan nan nan nan nan nan nan nan nan nan nan nan nan nan nan nan nan nan nan nan nan nan nan nan
nan 0 0 0 0 0 0 0 0 -0 -0 -0 -0 -0 -0 -0 -0 -0 -0 -0 -0 -0 -0 -0 -0 -0 -0 -0 -0 0 0 -0 -0 0 0 -0 -0 -0 -0 -0 -0 0 nan
nan 0 0 0 0 0 0 0 0 -0 -0 -0 -0 -0 -0 -0 -0 -0 -0 -0 -0 -0 -0 0 -0 -0 -0 -0 -0 -0 -0 0 -0 -0 0 0 -0 -0 -0 -0 -0 -0 nan
nan -0 0 0 0 0 0 -0 0 0 -0 -0 -0 -0 -0 -0 -0 -0 0 0 -0 -0 -0 0 0 -0 -0 -0 -0 -0 -0 -0 -0 0 0 0 -0 -0 -0 0 0 -0 nan
nan 0 0 0 0 0 0 0 0 -0 0 0 0 0 0 0 -0 -0 0 0 0 0 -0 0 0 0 -0 0 0 0 -0 -0 -0 -0 0 -0 0 0 -0 0 0 0 nan
nan 0 0 0 0 0 0 0 -0 -0 0 0 0 0 0 0 0 0 0 0 0 -0 0 -0 0 0 -0 -0 -0 0 0 -0 0 0 -0 -0 -0 0 -0 0 0 0 nan
nan 0 0 0 0 0 0 -0 -0 0 0 0 0 0 0 0 0 0 0 0 0 0 0 0 0 0 0 -0 -0 -0 0 0 0 0 -0 -0 -0 -0 0 0 0 0 nan
nan 0 0 0 0 -0 -0 -0 0 0 0 0 0 0 0 0 0 0 0 0 0 0 0 0 0 0 0 0 -0 -0 0 0 0 0 0 -0 -0 -0 -0 0 0 0 nan
nan 0 0 -0 -0 -0 -0 -0 0 0 0 0 0 0 0 -0 -0 -0 0 0 -0 0 0 0 0 0 0 0 0 0 0 -0 0 0 0 0 -0 -0 -0 -0 -0 0 nan
nan 0 -0 -0 -0 -0 -0 -0 -0 -0 -0 -0 -0 -0 0 -0 -0 -0 -0 0 -0 -0 -0 -0 -0 -0 0 0 0 0 0 0 0 0 0 -0 -0 -0 -0 -0 0 -0 nan
nan -0 -0 -0 -0 -0 -0 -0 -0 -0 -0 -0 -0 -0 -0 -0 -0 -0 -0 -0 -0 -0 -0 -0 -0 -0 -0 0 -0 -0 0 0 -0 -0 -0 -0 -0 -0 -0 0 -0 -0 nan
nan -0 -0 0 0 -0 -0 -0 -0 -0 -0 -0 -0 -0 -0 -0 -0 -0 -0 -0 -0 -0 -0 -0 -0 -0 -0 -0 0 0 0 -0 -0 -0 -0 -0 -0 -0 -0 -0 0 0 nan
nan -0 0 0 0 -0 -0 -0 -0 -0 -0 -0 -0 -0 -0 -0 -0 -0 -0 -0 -0 -0 -0 -0 -0 -0 -0 -0 -0 0 0 0 -0 0 -0 -1 0 -0 -0 -0 -0 -0 nan
nan 0 0 0 -0 -0 -0 -0 -0 -0 -0 -0 -0 -0 -0 -0 -0 -0 -0 -0 -0 -0 -0 -0 -0 -0 -0 -0 -0 -0 0 0 -0 -0 -0 -0 -0 -0 -0 -0 -0 -0 nan
nan 0 0 0 -0 -0 -0 -0 -0 -0 -0 -0 -0 -0 -0 -0 -0 -0 -0 -0 -0 -0 -0 -0 -0 -0 -0 -0 -0 -0 -0 0 0 0 -0 -1 -0 -0 -0 -0 -0 -0 nan
nan 0 0 0 0 -0 -0 -0 -0 -0 -0 -0 -0 -0 -0 -0 -0 -0 -0 -0 -0 -0 -0 -0 -0 -0 -0 -1 -0 -0 0 -0 -0 0 -0 -0 -1 -0 -0 -0 -0 -0 nan
nan 0 0 0 -0 -0 -0 -0 -0 -0 -0 -0 -0 -0 -0 -0 -0 -0 -0 -0 -0 -0 -0 -0 -0 -0 0 -0 -0 -1 -0 0 -0 -0 -0 0 -0 -0 -0 -0 -0 -0 nan
nan 0 0 0 0 0 -0 -0 -0 -0 -0 -0 -0 -0 -0 -0 -0 -0 -0 -0 -0 -0 -0 -0 -0 -0 -0 0 -0 -0 -0 -0 -0 -0 -0 -0 -0 -0 -0 -0 -0 -0 nan
nan 0 0 0 0 0 0 -0 -0 -0 -0 -0 -0 -0 -0 -0 -0 -0 -0 -0 -0 -0 -0 -0 -0 -0 -0 0 -0 -0 -0 -0 -0 -0 -0 -0 -0 -0 -0 -0 -0 -0 nan
nan 0 0 0 0 0 -0 -0 -0 -0 -0 -0 -0 -0 -0 -0 -0 -0 -0 -0 -0 -0 -0 -0 -0 -0 -0 0 -0 -0 -0 -0 -0 0 -0 -0 -0 -0 -0 -0 -0 -0 nan
nan 0 0 0 0 0 0 0 0 -0 -0 -0 -0 -0 -0 -0 -0 -0 -0 -0 -0 -0 -0 -0 -0 -0 -0 -1 -0 -0 0 0 -0 -0 -0 -0 -0 -0 -0 -0 -0 -0 nan
nan 0 0 0 0 0 0 0 0 0 0 -0 -0 -0 -0 -0 -0 -0 -0 -0 -0 -0 -0 -0 -0 -0 0 -1 0 -0 -0 0 0 0 -0 -0 -0 -1 -1 -1 -0 -0 nan
nan 0 0 0 0 0 0 0 0 0 0 0 -0 -0 -0 -0 -0 -0 -0 -0 -0 -0 -0 -0 -0 -0 0 0 0 -0 -0 -0 0 0 0 0 -0 -0 -0 -1 -0 -0 nan
nan 1 0 0 0 0 0 0 0 0 0 -0 0 0 0 0 -0 -0 -0 -0 -0 -0 -0 -0 -0 -0 -0 0 -0 0 -0 -0 -0 -0 0 0 0 -0 -0 -0 -1 -0 nan
nan 0 0 0 0 0 0 0 0 0 0 0 0 0 0 0 0 0 0 0 0 0 -0 -0 -0 -0 0 0 0 0 0 -0 -0 -0 -0 0 0 0 -0 -1 -1 -0 nan
nan nan nan nan nan nan nan nan nan nan nan nan nan nan nan nan nan nan nan nan nan nan nan nan nan nan nan nan nan nan nan nan nan nan nan nan nan nan nan nan nan nan nan
Wind_Speed
10 10 9 9 7 7 4 3 3 4 4 5 6 7 7 7 8 8 8 7 6 4 4 4 3 4 5 5 4 5 5 4 3 2 2 3 3 5 5 6 7 4 4
14 10 10 8 7 5 5 4 3 3 4 4 4 5 6 6 7 7 6 5 4 4 4 4 3 4 5 5 5 6 6 5 5 5 5 5 6 6 6 6 6 5 4
13 10 9 8 7 5 4 3 3 2 2 3 4 5 5 6 6 6 6 5 4 4 3 3 4 5 6 6 6 6 6 7 7 7 7 6 7 9 8 8 7 5 3
12 11 9 8 7 5 4 3 2 1 1 2 3 4 4 4 5 5 6 6 6 5 5 5 6 6 7 7 8 8 8 7 8 8 7 7 8 11 10 9 7 5 3
14 13 11 10 7 5 3 2 0 2 4 4 5 6 7 7 7 8 8 9 9 9 9 8 9 9 9 9 10 10 10 10 9 8 8 9 9 9 9 8 8 7 6
18 15 12 8 6 4 2 1 3 5 6 6 7 8 9 9 10 11 12 13 13 12 12 13 12 12 12 13 12 12 12 12 11 9 9 10 9 10 10 10 10 11 9
16 13 11 8 6 4 2 3 4 6 6 7 8 8 9 10 10 11 12 13 14 14 15 15 15 15 14 15 14 14 14 14 14 11 11 11 11 10 11 12 11 10 13
13 11 9 7 5 3 3 4 5 6 7 8 9 9 10 11 12 12 13 14 15 16 16 17 17 18 18 18 17 16 17 17 16 14 13 13 14 12 12 13 13 13 12
12 10 9 7 5 3 3 4 6 7 8 9 9 10 11 12 13 14 15 15 16 17 18 19 19 20 20 21 21 20 20 19 18 15 16 14 17 14 14 14 15 16 16
12 10 9 6 4 3 3 5 6 7 8 8 9 10 10 12 13 14 15 16 17 18 19 19 20 21 21 22 22 23 23 22 20 18 18 17 17 17 17 18 18 18 18
12 10 7 5 3 2 3 5 6 7 7 9 9 10 11 12 13 14 14 15 16 16 16 17 17 18 19 21 23 23 22 16 16 16 16 18 19 20 20 20 20 20 20
12 9 7 4 2 1 3 5 6 7 7 8 9 9 11 12 13 14 15 15 16 16 16 16 16 16 16 16 17 18 14 14 16 16 16 22 22 22 21 23 22 21 21
11 8 6 3 1 2 3 5 6 7 7 8 9 10 11 13 14 14 14 15 15 16 16 16 16 16 16 16 15 15 16 15 12 13 16 21 21 20 20 20 21 20 20
11 8 5 2 0 2 3 4 5 6 7 8 9 10 11 12 13 14 15 16 16 17 17 17 17 17 16 15 15 14 13 13 11 11 13 17 18 18 19 19 18 17 18
10 7 4 2 0 2 3 4 5 6 7 9 10 11 12 12 13 15 15 16 17 18 18 18 17 17 16 15 14 13 13 12 11 11 9 16 17 17 17 18 19 19 18
9 7 4 2 1 2 4 5 6 7 8 9 10 11 11 13 14 15 16 17 17 18 18 18 17 17 15 15 14 13 11 10 9 8 8 9 15 16 15 16 18 18 18
9 7 4 2 2 4 5 5 6 7 7 8 8 10 11 13 15 15 16 16 17 17 16 16 15 15 13 13 13 12 11 9 8 7 7 8 9 15 17 18 18 20 20
10 7 5 3 4 4 5 6 6 7 6 6 7 9 11 13 14 15 16 17 17 17 17 17 16 15 13 12 11 9 9 7 5 4 4 3 6 11 13 12 13 14 14
11 8 6 5 4 4 5 6 7 6 5 6 7 9 11 13 14 15 16 16 17 17 17 16 15 15 13 12 9 7 6 4 3 5 5 5 4 5 7 8 8 8 9
12 10 8 5 4 4 6 7 6 6 5 6 8 10 12 13 13 14 16 16 17 18 18 17 16 14 13 13 7 4 4 4 5 3 2 4 6 8 9 11 12 12 13
13 12 9 7 6 5 7 7 6 6 6 8 9 10 12 12 13 13 14 15 16 16 16 17 17 15 13 14 7 4 2 1 3 5 6 7 10 12 13 13 15 14 13
15 13 12 9 7 6 7 6 5 6 7 9 10 11 12 12 12 12 13 14 15 15 16 16 16 16 13 13 9 5 4 5 5 8 4 6 7 9 13 14 14 14 14
18 17 14 11 9 7 5 5 7 8 10 11 11 12 13 13 13 13 13 13 15 15 15 16 16 16 15 11 11 5 4 3 11 5 4 5 7 7 8 12 13 12 12
20 18 16 13 9 6 5 6 7 9 10 11 12 13 14 14 14 14 14 14 14 15 15 15 15 15 14 12 9 7 6 7 4 6 5 8 7 8 10 11 14 14 13
19 19 17 14 8 5 4 6 8 9 11 12 13 14 15 16 16 15 15 15 15 15 15 15 15 14 14 13 11 11 9 8 8 9 12 7 10 8 8 11 14 11 11
18 20 18 14 9 5 5 7 9 11 13 15 16 17 17 17 17 17 17 17 17 17 16 16 15 15 14 13 12 11 9 7 7 7 10 10 12 7 8 12 12 11 10
Wind_Direction
158 153 148 151 155 156 153 140 113 93 72 59 52 47 47 48 49 50 50 51 56 55 47 27 1 351 354 350 346 349 347 336 310 283 308 326 334 344 354 2 4 13 10
149 147 144 155 156 152 139 128 104 74 55 47 42 37 36 35 35 37 38 39 39 34 23 356 348 356 359 354 339 325 319 314 302 283 269 280 287 304 318 331 341 342 350
142 145 147 150 154 146 133 118 101 79 50 27 16 10 9 9 11 9 8 6 1 354 344 335 317 322 324 328 331 334 326 314 307 299 284 272 278 279 287 298 303 306 329
143 142 153 147 150 141 133 132 123 99 16 4 356 349 349 345 337 335 334 334 331 325 316 302 300 308 306 309 311 310 315 318 309 305 300 279 274 275 275 279 275 272 285
145 156 159 156 155 158 162 161 206 324 317 309 307 308 307 309 312 313 313 311 309 309 307 301 296 295 295 297 297 299 302 299 304 304 292 288 284 275 273 283 261 266 271
158 164 162 164 164 175 187 259 301 307 309 308 308 308 302 299 299 302 302 300 299 298 296 294 291 288 287 286 287 290 291 294 291 293 289 288 284 268 267 269 269 263 268
165 166 170 172 182 197 230 274 297 305 314 316 313 312 310 307 301 297 295 293 290 288 285 284 282 280 280 281 282 283 282 281 283 272 276 280 281 275 268 268 270 272 264
164 165 167 177 186 206 248 279 300 312 316 314 312 311 308 306 302 298 294 291 289 287 285 284 282 279 278 278 276 279 281 278 279 273 266 271 273 278 274 271 266 266 272
170 169 170 176 192 231 266 296 312 315 316 313 314 314 311 308 305 304 302 300 298 295 292 288 284 281 278 276 275 275 275 277 276 268 269 269 275 273 274 275 271 264 263
171 172 172 184 204 241 289 309 318 319 318 320 320 319 318 317 316 316 314 313 308 305 301 295 290 285 281 277 275 273 272 275 277 273 270 271 272 275 275 274 274 274 271
174 174 178 186 205 264 311 324 324 326 329 329 330 332 333 330 330 328 325 320 317 317 316 312 306 301 294 287 281 278 277 276 267 270 269 269 271 271 273 276 274 273 273
174 180 182 187 205 299 328 332 334 339 339 336 339 340 340 336 334 333 332 331 332 331 328 326 324 319 314 303 295 288 282 277 277 269 266 264 275 274 275 275 276 276 273
177 182 185 184 214 338 344 342 345 342 338 341 344 344 344 343 341 340 339 338 336 335 334 332 331 328 324 319 311 301 286 279 276 280 277 270 271 271 271 273 276 276 277
180 183 184 180 49 0 349 344 338 338 344 346 347 348 349 347 348 349 346 342 339 337 335 333 331 329 325 321 316 311 303 292 278 274 282 273 268 267 268 274 278 281 281
184 184 184 174 64 340 330 335 339 344 345 345 348 354 357 356 355 351 347 343 342 342 339 337 334 331 327 321 317 316 312 304 291 278 277 277 274 274 273 274 277 280 281
188 190 190 188 243 309 320 336 341 342 343 346 356 359 358 359 355 353 350 349 348 346 346 343 340 335 331 327 324 322 317 316 308 297 282 288 273 274 274 274 276 279 284
194 199 203 217 274 300 321 333 332 338 342 349 353 353 356 356 355 353 351 351 351 351 351 349 343 337 332 329 328 322 316 311 314 306 293 274 298 276 276 276 280 282 283
202 208 218 250 280 300 323 322 331 331 330 340 347 352 353 352 352 352 352 353 353 354 355 355 349 344 340 339 334 327 325 316 319 341 345 337 293 294 295 292 286 282 280
212 216 228 252 273 301 309 321 317 310 319 333 342 347 349 350 350 350 351 353 354 356 357 359 358 350 350 351 346 347 7 37 39 51 46 21 332 315 315 312 304 300 295
218 223 232 246 256 277 309 309 303 306 317 328 335 339 342 344 346 348 350 352 354 356 357 357 358 357 356 356 352 6 24 54 65 65 7 325 318 314 315 311 307 305 305
222 228 231 236 245 279 303 302 302 311 317 319 322 330 333 336 339 342 345 349 353 354 354 355 356 356 356 3 2 323 287 342 325 308 302 300 302 297 301 304 299 294 292
229 230 229 231 244 274 298 290 295 301 303 307 312 318 322 324 330 333 338 342 345 347 350 351 353 356 357 359 0 329 299 268 313 290 294 306 322 315 303 299 300 296 292
231 229 226 230 243 278 282 293 302 302 303 307 309 311 313 317 319 319 326 332 334 338 341 344 347 350 352 353 357 8 331 316 323 282 307 330 338 334 324 313 305 302 303
232 227 224 227 240 263 276 299 307 307 308 308 305 305 308 310 308 309 314 318 321 324 329 334 338 340 342 342 348 333 311 286 302 304 294 303 331 315 309 316 315 310 312
229 225 222 222 232 240 275 298 308 313 314 315 314 310 306 305 302 300 302 305 307 310 315 319 323 329 331 331 327 325 321 303 284 287 303 303 312 313 318 311 315 316 322
223 217 212 211 211 229 271 295 302 304 307 311 311 307 306 305 302 296 293 294 296 300 303 306 309 312 316 316 315 313 308 299 274 288 294 300 308 309 310 305 318 323 322
Height
1556 1557 1558 1559 1561 1561 1562 1562 1562 1562 1561 1561 1561 1560 1560 1559 1558 1557 1556 1555 1554 1553 1552 1552 1551 1550 1549 1548 1547 1546 1545 1544 1544 1544 1543 1543 1542 1542 1541 1540 1539 1539 1537
1555 1558 1558 1559 1561 1562 1562 1562 1562 1562 1562 1562 1561 1561 1560 1560 1559 1558 1557 1556 1555 1554 1553 1552 1551 1550 1549 1548 1547 1546 1545 1544 1543 1543 1542 1542 1542 1542 1541 1540 1539 1538 1537
1556 1558 1559 1560 1561 1562 1562 1563 1563 1562 1562 1562 1562 1561 1561 1560 1559 1558 1557 1556 1555 1554 1553 1552 1551 1550 1549 1548 1547 1546 1545 1544 1543 1542 1542 1542 1542 1541 1540 1540 1540 1539 1537
1557 1558 1560 1560 1561 1562 1563 1563 1563 1563 1562 1562 1562 1561 1561 1560 1559 1558 1557 1556 1555 1554 1553 1552 1551 1550 1549 1547 1546 1545 1544 1543 1542 1541 1541 1541 1541 1539 1539 1538 1538 1538 1538
1556 1558 1558 1560 1561 1562 1563 1563 1563 1563 1563 1562 1561 1561 1560 1559 1559 1558 1557 1556 1554 1553 1552 1551 1550 1549 1548 1547 1546 1544 1543 1542 1541 1540 1540 1539 1538 1537 1537 1537 1537 1537 1537
1555 1557 1559 1560 1561 1562 1563 1563 1563 1563 1562 1562 1561 1560 1559 1558 1558 1556 1555 1554 1553 1551 1550 1549 1548 1547 1546 1545 1544 1543 1542 1541 1539 1539 1538 1537 1536 1535 1535 1535 1535 1535 1535
1556 1558 1559 1561 1562 1563 1563 1563 1563 1563 1562 1561 1560 1559 1558 1557 1556 1554 1553 1552 1550 1548 1547 1546 1545 1544 1544 1543 1542 1541 1540 1539 1537 1538 1537 1535 1534 1533 1533 1533 1532 1532 1532
1557 1559 1560 1561 1562 1563 1563 1563 1562 1562 1561 1560 1558 1557 1556 1555 1553 1552 1550 1549 1548 1546 1545 1543 1542 1541 1540 1539 1539 1538 1537 1536 1535 1535 1535 1533 1531 1531 1531 1530 1530 1530 1530
1557 1559 1560 1561 1562 1562 1562 1562 1561 1560 1559 1558 1557 1555 1554 1553 1551 1550 1548 1547 1546 1544 1542 1541 1539 1538 1537 1536 1535 1534 1534 1533 1532 1533 1532 1532 1530 1529 1528 1527 1527 1527 1527
1557 1559 1560 1560 1561 1562 1562 1561 1560 1560 1558 1557 1555 1554 1553 1551 1550 1548 1546 1544 1543 1541 1539 1537 1535 1534 1533 1531 1530 1530 1529 1529 1529 1529 1528 1528 1527 1526 1525 1525 1524 1524 1524
1557 1559 1559 1560 1561 1561 1561 1560 1560 1559 1558 1556 1555 1553 1552 1550 1548 1546 1544 1542 1540 1537 1535 1533 1532 1530 1529 1527 1527 1526 1526 1527 1528 1526 1525 1524 1523 1523 1522 1521 1521 1520 1520
1556 1558 1559 1560 1560 1560 1560 1560 1559 1558 1557 1556 1554 1552 1551 1549 1547 1545 1542 1540 1538 1535 1533 1530 1529 1527 1525 1523 1522 1521 1522 1522 1522 1522 1523 1519 1519 1519 1518 1518 1517 1516 1516
1556 1558 1559 1559 1559 1559 1559 1559 1558 1557 1556 1555 1553 1551 1549 1548 1546 1544 1541 1539 1536 1534 1531 1529 1526 1524 1522 1521 1519 1518 1516 1516 1518 1518 1516 1515 1515 1515 1514 1513 1513 1512 1512
1556 1557 1558 1558 1558 1558 1558 1558 1557 1556 1555 1554 1552 1551 1549 1547 1545 1543 1540 1538 1535 1532 1529 1527 1524 1522 1520 1518 1516 1515 1513 1513 1513 1513 1513 1511 1510 1510 1510 1510 1510 1509 1509
1556 1557 1558 1557 1558 1557 1557 1557 1556 1555 1554 1553 1551 1549 1548 1546 1544 1541 1539 1537 1534 1531 1528 1525 1523 1520 1518 1516 1514 1512 1511 1510 1509 1509 1509 1507 1507 1508 1507 1507 1507 1506 1506
1555 1557 1557 1557 1557 1556 1556 1556 1555 1554 1553 1552 1550 1548 1547 1545 1543 1541 1539 1536 1533 1530 1527 1524 1521 1519 1516 1514 1512 1510 1509 1508 1506 1506 1506 1506 1504 1505 1505 1504 1504 1503 1503
1554 1555 1555 1555 1555 1555 1555 1555 1554 1553 1552 1551 1549 1547 1546 1544 1542 1540 1538 1535 1532 1529 1526 1523 1520 1518 1515 1512 1511 1509 1507 1507 1505 1504 1504 1504 1503 1503 1503 1502 1501 1500 1500
1553 1553 1554 1554 1554 1554 1554 1554 1553 1552 1551 1549 1548 1547 1545 1544 1542 1540 1537 1534 1532 1529 1526 1523 1520 1517 1514 1511 1509 1508 1506 1505 1504 1503 1503 1502 1501 1500 1500 1498 1497 1496 1495
1551 1552 1552 1553 1553 1552 1553 1552 1552 1551 1550 1548 1547 1546 1544 1543 1541 1539 1536 1533 1530 1528 1525 1523 1519 1516 1513 1510 1508 1507 1505 1504 1503 1503 1502 1501 1500 1499 1498 1497 1495 1494 1493
1549 1550 1550 1551 1551 1552 1551 1551 1550 1549 1548 1547 1546 1545 1544 1542 1540 1538 1535 1532 1530 1527 1525 1523 1520 1516 1513 1510 1508 1508 1506 1505 1504 1502 1501 1500 1500 1499 1498 1497 1495 1494 1494
1547 1547 1549 1550 1550 1550 1550 1549 1548 1547 1546 1546 1545 1544 1542 1540 1538 1536 1534 1532 1529 1527 1524 1522 1519 1516 1513 1510 1509 1509 1506 1504 1503 1502 1501 1500 1499 1497 1496 1494 1493 1491 1489
1544 1545 1547 1548 1548 1548 1548 1547 1547 1546 1545 1544 1543 1542 1540 1539 1537 1535 1533 1531 1529 1526 1524 1522 1519 1516 1513 1511 1509 1508 1508 1506 1503 1501 1500 1499 1498 1496 1494 1492 1490 1488 1487
1541 1543 1545 1546 1546 1546 1546 1546 1545 1545 1544 1543 1541 1539 1538 1537 1534 1533 1531 1529 1528 1526 1523 1521 1519 1516 1514 1512 1509 1509 1508 1506 1504 1502 1500 1499 1497 1495 1492 1489 1487 1485 1483
1538 1541 1542 1544 1545 1545 1544 1544 1543 1543 1542 1540 1539 1537 1535 1534 1532 1531 1529 1527 1526 1524 1522 1520 1517 1515 1513 1512 1510 1508 1506 1506 1505 1502 1500 1498 1495 1492 1489 1486 1485 1483 1480
1535 1537 1539 1541 1543 1543 1543 1542 1541 1540 1539 1538 1536 1534 1533 1530 1529 1527 1526 1524 1523 1521 1519 1517 1516 1514 1512 1511 1509 1507 1505 1504 1504 1503 1499 1498 1496 1494 1488 1485 1482 1480 1478
1530 1532 1535 1538 1540 1540 1540 1540 1539 1537 1536 1534 1533 1531 1529 1527 1525 1523 1522 1521 1519 1518 1516 1515 1513 1511 1510 1508 1507 1504 1503 1502 1501 1500 1497 1495 1493 1491 1489 1483 1481 1478 1476